AAL596 KSAN-KPHX

Flight info

Callsign AAL596
Flight time N/A
Altitude 27000
Route ZZOOO4 HOGGZ HYDRR1
Aircraft A321/M-SDE3FGHIRWY/LB1

Departure

Time 2026-05-07 01:27
Airport San Diego International Airport (KSAN)

Arrival

Time N/A
Airport Phoenix Sky Harbor International Airport (KPHX)
Time Latitude Longitude Altitude Speed Heading
2026-05-07 01:10 32.73288 -117.19556 25 ft 0 kts 282°
2026-05-07 01:19 32.73287 -117.19552 29 ft 3 kts 282°
2026-05-07 01:19 32.73281 -117.19521 25 ft 4 kts 282°
2026-05-07 01:19 32.73277 -117.19491 28 ft 4 kts 268°
2026-05-07 01:19 32.73283 -117.19462 28 ft 4 kts 230°
2026-05-07 01:20 32.73303 -117.19443 29 ft 4 kts 214°
2026-05-07 01:20 32.73315 -117.19428 29 ft 4 kts 286°
2026-05-07 01:20 32.73308 -117.19402 29 ft 1 kts 286°
2026-05-07 01:22 32.73309 -117.19406 25 ft 4 kts 286°
2026-05-07 01:22 32.73333 -117.19411 30 ft 5 kts 39°
2026-05-07 01:23 32.73341 -117.19331 24 ft 12 kts 103°
2026-05-07 01:23 32.73319 -117.19232 23 ft 14 kts 105°
2026-05-07 01:23 32.73287 -117.19104 29 ft 17 kts 107°
2026-05-07 01:23 32.73255 -117.18976 26 ft 16 kts 105°
2026-05-07 01:24 32.73227 -117.18859 27 ft 14 kts 105°
2026-05-07 01:24 32.73204 -117.18761 34 ft 11 kts 106°
2026-05-07 01:24 32.73184 -117.18682 30 ft 9 kts 108°
2026-05-07 01:24 32.73163 -117.18598 28 ft 15 kts 107°
2026-05-07 01:25 32.73121 -117.18424 26 ft 24 kts 106°
2026-05-07 01:25 32.73077 -117.18242 26 ft 23 kts 106°
2026-05-07 01:25 32.73033 -117.18060 23 ft 23 kts 105°
2026-05-07 01:25 32.72990 -117.17883 23 ft 22 kts 107°
2026-05-07 01:26 32.72950 -117.17721 23 ft 18 kts 93°
2026-05-07 01:26 32.72999 -117.17614 29 ft 14 kts
2026-05-07 01:26 32.73048 -117.17700 25 ft 14 kts 285°
2026-05-07 01:26 32.73098 -117.17913 23 ft 55 kts 285°
2026-05-07 01:27 32.73266 -117.18597 28 ft 114 kts 286°
2026-05-07 01:27 32.73548 -117.19663 162 ft 145 kts 289°
2026-05-07 01:27 32.73862 -117.20771 855 ft 139 kts 290°
2026-05-07 01:27 32.74145 -117.21844 1465 ft 134 kts 288°
2026-05-07 01:28 32.74382 -117.22907 2005 ft 136 kts 286°
2026-05-07 01:28 32.74633 -117.24041 2265 ft 154 kts 287°
2026-05-07 01:28 32.74941 -117.25356 2523 ft 176 kts 287°
2026-05-07 01:28 32.75292 -117.26838 2717 ft 196 kts 287°
2026-05-07 01:29 32.75683 -117.28474 2870 ft 214 kts 287°
2026-05-07 01:29 32.76106 -117.30243 3016 ft 233 kts 287°
2026-05-07 01:29 32.76523 -117.32156 3527 ft 243 kts 277°
2026-05-07 01:29 32.76235 -117.34124 4186 ft 249 kts 240°
2026-05-07 01:30 32.74979 -117.35522 4859 ft 255 kts 203°
2026-05-07 01:30 32.73256 -117.35783 5478 ft 259 kts 167°
2026-05-07 01:30 32.71650 -117.34837 5887 ft 261 kts 138°
2026-05-07 01:30 32.70313 -117.33385 6050 ft 263 kts 131°
2026-05-07 01:31 32.69057 -117.31812 6791 ft 262 kts 130°
2026-05-07 01:31 32.67812 -117.30227 7543 ft 263 kts 130°
2026-05-07 01:31 32.66549 -117.28650 8269 ft 265 kts 131°
2026-05-07 01:31 32.65256 -117.27080 8968 ft 268 kts 131°
2026-05-07 01:32 32.64012 -117.25438 9647 ft 267 kts 120°
2026-05-07 01:32 32.63177 -117.23480 10210 ft 270 kts 104°
2026-05-07 01:32 32.62824 -117.21246 10436 ft 285 kts 92°
2026-05-07 01:32 32.62622 -117.18844 10565 ft 307 kts 93°
2026-05-07 01:33 32.62396 -117.16237 10699 ft 328 kts 93°
2026-05-07 01:33 32.62152 -117.13475 10965 ft 342 kts 93°
2026-05-07 01:33 32.62118 -117.10645 11471 ft 344 kts 81°
2026-05-07 01:33 32.62696 -117.07904 12061 ft 344 kts 67°
2026-05-07 01:34 32.63573 -117.05250 12677 ft 347 kts 67°
2026-05-07 01:34 32.64450 -117.02576 13303 ft 349 kts 67°
2026-05-07 01:34 32.65330 -116.99876 13919 ft 352 kts 67°
2026-05-07 01:34 32.66188 -116.97146 14453 ft 355 kts 71°
2026-05-07 01:35 32.66661 -116.94291 14955 ft 361 kts 82°
2026-05-07 01:35 32.66746 -116.91297 15475 ft 365 kts 85°
2026-05-07 01:35 32.66809 -116.88279 15993 ft 367 kts 85°
2026-05-07 01:35 32.66880 -116.85240 16525 ft 369 kts 85°
2026-05-07 01:36 32.66953 -116.82189 17027 ft 371 kts 85°
2026-05-07 01:36 32.67026 -116.79119 17506 ft 374 kts 85°
2026-05-07 01:36 32.67098 -116.76026 17965 ft 376 kts 85°
2026-05-07 01:36 32.67140 -116.72910 18419 ft 380 kts 86°
2026-05-07 01:37 32.67118 -116.69806 18790 ft 382 kts 88°
2026-05-07 01:37 32.67052 -116.66647 19161 ft 384 kts 88°
2026-05-07 01:37 32.66972 -116.63468 19511 ft 387 kts 88°
2026-05-07 01:37 32.66893 -116.60268 19877 ft 389 kts 88°
2026-05-07 01:38 32.66821 -116.57053 20247 ft 391 kts 88°
2026-05-07 01:38 32.66761 -116.53828 20690 ft 391 kts 87°
2026-05-07 01:38 32.66707 -116.50601 21084 ft 392 kts 87°
2026-05-07 01:38 32.66656 -116.47361 21410 ft 394 kts 87°
2026-05-07 01:39 32.66601 -116.44098 21771 ft 397 kts 87°
2026-05-07 01:39 32.66717 -116.40881 22117 ft 395 kts 79°
2026-05-07 01:39 32.67024 -116.37633 22466 ft 398 kts 79°
2026-05-07 01:39 32.67329 -116.34362 22847 ft 400 kts 79°
2026-05-07 01:40 32.67629 -116.31071 23241 ft 402 kts 80°
2026-05-07 01:40 32.67928 -116.27765 23607 ft 404 kts 79°
2026-05-07 01:40 32.68229 -116.24439 23947 ft 406 kts 80°
2026-05-07 01:40 32.68529 -116.21112 24352 ft 405 kts 80°
2026-05-07 01:41 32.68828 -116.17792 24701 ft 405 kts 80°
2026-05-07 01:41 32.69127 -116.14460 25049 ft 406 kts 80°
2026-05-07 01:41 32.69423 -116.11169 25364 ft 407 kts 80°
2026-05-07 01:41 32.69719 -116.07819 25683 ft 408 kts 80°
2026-05-07 01:42 32.70010 -116.04461 26028 ft 410 kts 80°
2026-05-07 01:42 32.70305 -116.01090 26346 ft 411 kts 80°
2026-05-07 01:42 32.70611 -115.97717 26668 ft 412 kts 80°
2026-05-07 01:42 32.70926 -115.94332 26961 ft 413 kts 80°
2026-05-07 01:43 32.71240 -115.90978 27005 ft 405 kts 80°
2026-05-07 01:43 32.71549 -115.87674 27000 ft 401 kts 80°
2026-05-07 01:43 32.71851 -115.84437 26996 ft 400 kts 80°
2026-05-07 01:43 32.72153 -115.81157 26992 ft 400 kts 80°
2026-05-07 01:44 32.72451 -115.77876 26988 ft 399 kts 80°
2026-05-07 01:44 32.72751 -115.74596 26984 ft 399 kts 80°
2026-05-07 01:44 32.73050 -115.71322 26982 ft 399 kts 80°
2026-05-07 01:44 32.73347 -115.68044 26993 ft 398 kts 80°
2026-05-07 01:45 32.73641 -115.64778 26977 ft 397 kts 80°
2026-05-07 01:45 32.73928 -115.61563 26981 ft 397 kts 80°
2026-05-07 01:45 32.74220 -115.58310 26964 ft 396 kts 80°
2026-05-07 01:45 32.74511 -115.55056 26964 ft 396 kts 80°
2026-05-07 01:46 32.74801 -115.51802 26972 ft 396 kts 80°
2026-05-07 01:46 32.75032 -115.48539 26970 ft 397 kts 82°
2026-05-07 01:46 32.75159 -115.45259 26970 ft 398 kts 84°
2026-05-07 01:46 32.75221 -115.41973 26965 ft 398 kts 85°
2026-05-07 01:47 32.75255 -115.38682 26964 ft 398 kts 85°
2026-05-07 01:47 32.75289 -115.35393 26965 ft 398 kts 85°
2026-05-07 01:47 32.75338 -115.32148 26971 ft 398 kts 84°
2026-05-07 01:47 32.75405 -115.28864 26973 ft 398 kts 84°
2026-05-07 01:48 32.75481 -115.25579 26977 ft 398 kts 84°
2026-05-07 01:48 32.75559 -115.22290 26979 ft 398 kts 84°
2026-05-07 01:48 32.75633 -115.19009 26972 ft 398 kts 84°
2026-05-07 01:48 32.75708 -115.15721 26974 ft 398 kts 84°
2026-05-07 01:49 32.75782 -115.12440 26975 ft 398 kts 84°
2026-05-07 01:49 32.75853 -115.09151 26975 ft 398 kts 84°
2026-05-07 01:49 32.75919 -115.05911 26972 ft 398 kts 84°
2026-05-07 01:49 32.75986 -115.02627 26974 ft 398 kts 84°
2026-05-07 01:50 32.76054 -114.99342 26960 ft 398 kts 85°
2026-05-07 01:50 32.76123 -114.96055 26955 ft 398 kts 85°
2026-05-07 01:50 32.76193 -114.92762 26950 ft 399 kts 85°
2026-05-07 01:50 32.76263 -114.89463 26951 ft 399 kts 85°
2026-05-07 01:51 32.76332 -114.86168 26950 ft 400 kts 85°
2026-05-07 01:51 32.76396 -114.82868 26949 ft 400 kts 85°
2026-05-07 01:51 32.76458 -114.79608 26950 ft 400 kts 85°
2026-05-07 01:51 32.76519 -114.76305 26954 ft 400 kts 85°
2026-05-07 01:52 32.76580 -114.73000 26955 ft 400 kts 85°
2026-05-07 01:52 32.76640 -114.69695 26956 ft 400 kts 85°
2026-05-07 01:52 32.76697 -114.66389 26954 ft 400 kts 85°
2026-05-07 01:52 32.76754 -114.63082 26956 ft 400 kts 85°
2026-05-07 01:53 32.76814 -114.59777 26952 ft 400 kts 85°
2026-05-07 01:53 32.76871 -114.56473 26954 ft 400 kts 85°
2026-05-07 01:53 32.76922 -114.53213 26952 ft 400 kts 85°
2026-05-07 01:53 32.76969 -114.49908 26945 ft 400 kts 85°
2026-05-07 01:54 32.77014 -114.46599 26949 ft 400 kts 85°
2026-05-07 01:54 32.77057 -114.43298 26947 ft 400 kts 85°
2026-05-07 01:54 32.77100 -114.39995 26948 ft 400 kts 85°
2026-05-07 01:54 32.77142 -114.36692 26930 ft 400 kts 85°
2026-05-07 01:55 32.77184 -114.33389 26913 ft 400 kts 85°
2026-05-07 01:55 32.77225 -114.30088 26910 ft 400 kts 85°
2026-05-07 01:55 32.77266 -114.26828 26904 ft 400 kts 85°
2026-05-07 01:55 32.77305 -114.23529 26906 ft 400 kts 85°
2026-05-07 01:56 32.77341 -114.20226 26904 ft 400 kts 85°
2026-05-07 01:56 32.77375 -114.16923 26903 ft 400 kts 85°
2026-05-07 01:56 32.77407 -114.13623 26902 ft 400 kts 86°
2026-05-07 01:56 32.77442 -114.10320 26910 ft 400 kts 85°
2026-05-07 01:57 32.77501 -114.07022 26910 ft 398 kts 83°
2026-05-07 01:57 32.77824 -114.03758 26906 ft 397 kts 79°
2026-05-07 01:57 32.78184 -114.00547 26906 ft 398 kts 79°
2026-05-07 01:57 32.78550 -113.97288 26913 ft 398 kts 79°
2026-05-07 01:58 32.78913 -113.94026 26911 ft 398 kts 79°
2026-05-07 01:58 32.79273 -113.90763 26912 ft 399 kts 80°
2026-05-07 01:58 32.79632 -113.87493 26922 ft 399 kts 80°
2026-05-07 01:58 32.79988 -113.84220 26923 ft 399 kts 80°
2026-05-07 01:59 32.80342 -113.80947 26926 ft 399 kts 80°
2026-05-07 01:59 32.80695 -113.77671 26927 ft 400 kts 80°
2026-05-07 01:59 32.81043 -113.74439 26935 ft 400 kts 80°
2026-05-07 01:59 32.81630 -113.71228 26930 ft 397 kts 70°
2026-05-07 02:00 32.82696 -113.68207 26929 ft 396 kts 60°
2026-05-07 02:00 32.84178 -113.65482 26761 ft 388 kts 52°
2026-05-07 02:00 32.85929 -113.63090 26510 ft 380 kts 49°
2026-05-07 02:00 32.87679 -113.60754 26255 ft 377 kts 49°
2026-05-07 02:01 32.89412 -113.58425 26003 ft 376 kts 49°
2026-05-07 02:01 32.91136 -113.56096 25776 ft 374 kts 49°
2026-05-07 02:01 32.92847 -113.53784 25453 ft 368 kts 49°
2026-05-07 02:01 32.94503 -113.51549 24965 ft 362 kts 49°
2026-05-07 02:02 32.96155 -113.49324 24509 ft 355 kts 49°
2026-05-07 02:02 32.97779 -113.47135 24043 ft 350 kts 49°
2026-05-07 02:02 32.99379 -113.44977 23593 ft 345 kts 49°
2026-05-07 02:02 33.00957 -113.42850 23111 ft 340 kts 49°
2026-05-07 02:03 33.02508 -113.40752 22682 ft 336 kts 49°
2026-05-07 02:03 33.04049 -113.38664 22289 ft 335 kts 49°
2026-05-07 02:03 33.05585 -113.36584 21891 ft 334 kts 49°
2026-05-07 02:03 33.07132 -113.34490 21697 ft 350 kts 49°
2026-05-07 02:04 33.08762 -113.32287 21465 ft 357 kts 49°
2026-05-07 02:04 33.10406 -113.30065 21240 ft 358 kts 49°
2026-05-07 02:04 33.12052 -113.27844 21004 ft 357 kts 49°
2026-05-07 02:04 33.13695 -113.25621 20764 ft 357 kts 49°
2026-05-07 02:05 33.15333 -113.23402 20531 ft 356 kts 49°
2026-05-07 02:05 33.16968 -113.21188 20302 ft 355 kts 49°
2026-05-07 02:05 33.18600 -113.18975 20064 ft 355 kts 49°
2026-05-07 02:05 33.20228 -113.16764 19836 ft 354 kts 49°
2026-05-07 02:06 33.21850 -113.14559 19607 ft 353 kts 49°
2026-05-07 02:06 33.23448 -113.12384 19377 ft 353 kts 49°
2026-05-07 02:06 33.25066 -113.10184 19147 ft 351 kts 50°
2026-05-07 02:06 33.26437 -113.07839 18885 ft 340 kts 62°
2026-05-07 02:07 33.27264 -113.05227 18627 ft 335 kts 76°
2026-05-07 02:07 33.27616 -112.99678 18222 ft 336 kts 87°
2026-05-07 02:07 33.27685 -112.96892 17954 ft 335 kts 87°
2026-05-07 02:08 33.27756 -112.94121 17696 ft 333 kts 87°
2026-05-07 02:08 33.27825 -112.91362 17439 ft 331 kts 87°
2026-05-07 02:08 33.27889 -112.88651 17182 ft 330 kts 87°
2026-05-07 02:08 33.27953 -112.85921 16921 ft 326 kts 87°
2026-05-07 02:09 33.28019 -112.83250 16669 ft 317 kts 87°
2026-05-07 02:09 33.28123 -112.80660 16415 ft 308 kts 84°
2026-05-07 02:09 33.28327 -112.78127 16166 ft 305 kts 82°
2026-05-07 02:09 33.28579 -112.75619 15918 ft 303 kts 81°
2026-05-07 02:10 33.28844 -112.73129 15673 ft 301 kts 81°
2026-05-07 02:10 33.29104 -112.70648 15428 ft 300 kts 81°
2026-05-07 02:10 33.29354 -112.68178 15186 ft 299 kts 81°
2026-05-07 02:10 33.29591 -112.65754 14979 ft 297 kts 81°
2026-05-07 02:11 33.29827 -112.63303 14785 ft 296 kts 81°
2026-05-07 02:11 33.30057 -112.60864 14505 ft 295 kts 81°
2026-05-07 02:11 33.30282 -112.58438 14221 ft 293 kts 81°
2026-05-07 02:11 33.30504 -112.56021 13937 ft 291 kts 81°
2026-05-07 02:12 33.30724 -112.53621 13639 ft 290 kts 81°
2026-05-07 02:12 33.30942 -112.51235 13342 ft 288 kts 81°
2026-05-07 02:12 33.31161 -112.48861 13062 ft 287 kts 81°
2026-05-07 02:12 33.31379 -112.46493 12775 ft 286 kts 81°
2026-05-07 02:13 33.31594 -112.44135 12510 ft 285 kts 82°
2026-05-07 02:13 33.31805 -112.41812 12239 ft 285 kts 82°
2026-05-07 02:13 33.32016 -112.39464 11965 ft 284 kts 82°
2026-05-07 02:13 33.32229 -112.37126 11691 ft 282 kts 82°
2026-05-07 02:14 33.32443 -112.34799 11418 ft 281 kts 81°
2026-05-07 02:14 33.32657 -112.32483 11146 ft 280 kts 81°
2026-05-07 02:14 33.32871 -112.30180 10875 ft 279 kts 81°
2026-05-07 02:14 33.33081 -112.27879 10603 ft 278 kts 82°
2026-05-07 02:15 33.33289 -112.25591 10334 ft 276 kts 81°
2026-05-07 02:15 33.33494 -112.23339 9929 ft 275 kts 81°
2026-05-07 02:15 33.33698 -112.21076 9433 ft 273 kts 81°
2026-05-07 02:15 33.33903 -112.18816 8951 ft 273 kts 82°
2026-05-07 02:16 33.34105 -112.16575 8515 ft 267 kts 81°
2026-05-07 02:16 33.34296 -112.14429 8291 ft 252 kts 82°
2026-05-07 02:16 33.34475 -112.12394 8064 ft 241 kts 82°
2026-05-07 02:16 33.34654 -112.10405 7845 ft 240 kts 82°
2026-05-07 02:17 33.34751 -112.08414 7627 ft 241 kts 89°
2026-05-07 02:17 33.34720 -112.06449 7429 ft 235 kts 89°
2026-05-07 02:17 33.34695 -112.04549 7229 ft 221 kts 89°
2026-05-07 02:17 33.34673 -112.02780 7019 ft 206 kts 89°
2026-05-07 02:18 33.34653 -112.01115 6801 ft 195 kts 88°
2026-05-07 02:18 33.34631 -111.99536 6586 ft 186 kts 89°
2026-05-07 02:18 33.34611 -111.98026 6372 ft 178 kts 89°
2026-05-07 02:18 33.34593 -111.96572 6149 ft 173 kts 88°
2026-05-07 02:19 33.34577 -111.95141 5920 ft 172 kts 88°
2026-05-07 02:19 33.34560 -111.93703 5697 ft 174 kts 88°
2026-05-07 02:19 33.34567 -111.92270 5503 ft 170 kts 86°
2026-05-07 02:19 33.34600 -111.90874 5292 ft 172 kts 87°
2026-05-07 02:20 33.34635 -111.89436 5072 ft 174 kts 86°
2026-05-07 02:20 33.34671 -111.87981 4858 ft 175 kts 87°
2026-05-07 02:20 33.34707 -111.86520 4631 ft 176 kts 87°
2026-05-07 02:20 33.34743 -111.85058 4415 ft 176 kts 87°
2026-05-07 02:21 33.34777 -111.83592 4191 ft 177 kts 88°
2026-05-07 02:21 33.34808 -111.82130 4061 ft 176 kts 89°
2026-05-07 02:21 33.34840 -111.80666 4026 ft 176 kts 88°
2026-05-07 02:21 33.35021 -111.79224 4031 ft 175 kts 65°
2026-05-07 02:22 33.35765 -111.78137 4024 ft 172 kts 30°
2026-05-07 02:22 33.36872 -111.77734 4024 ft 167 kts 358°
2026-05-07 02:22 33.37968 -111.78080 4029 ft 164 kts 333°
2026-05-07 02:22 33.39009 -111.78635 4029 ft 162 kts 333°
2026-05-07 02:23 33.40005 -111.79159 4024 ft 154 kts 333°
2026-05-07 02:23 33.40973 -111.79668 4028 ft 151 kts 334°
2026-05-07 02:23 33.41930 -111.80169 4016 ft 151 kts 335°
2026-05-07 02:23 33.42885 -111.80683 4022 ft 149 kts 328°
2026-05-07 02:24 33.43647 -111.81494 4025 ft 147 kts 303°
2026-05-07 02:24 33.44021 -111.82586 4024 ft 144 kts 278°
2026-05-07 02:24 33.44050 -111.83786 3979 ft 145 kts 270°
2026-05-07 02:24 33.44053 -111.85023 3575 ft 151 kts 271°
2026-05-07 02:25 33.44056 -111.86269 3288 ft 148 kts 269°
2026-05-07 02:25 33.44059 -111.87481 3050 ft 143 kts 269°
2026-05-07 02:25 33.44061 -111.88668 2852 ft 143 kts 270°
2026-05-07 02:25 33.44064 -111.89860 2662 ft 143 kts 270°
2026-05-07 02:26 33.44067 -111.91048 2476 ft 143 kts 269°
2026-05-07 02:26 33.44069 -111.92241 2296 ft 143 kts 272°
2026-05-07 02:26 33.44071 -111.93404 2123 ft 142 kts 270°
2026-05-07 02:26 33.44074 -111.94593 1948 ft 144 kts 271°
2026-05-07 02:27 33.44076 -111.95793 1749 ft 143 kts 269°
2026-05-07 02:27 33.44078 -111.96979 1561 ft 143 kts 270°
2026-05-07 02:27 33.44085 -111.98154 1376 ft 141 kts 269°
2026-05-07 02:27 33.44080 -111.99323 1188 ft 140 kts 269°